User: anonymous   Login
Location: Unspecified
(0.0000°N, 0.0000°E)
Time: 19:32:56
(UTC+00:00)
Language:

TIGRISAT - Orbit

View from above orbital plane
View from above orbital plane
View from above satellite
View from above satellite

Ground track
Ground track

The orbit data is extracted from the following two-line orbital elements,

1 40043U 14033AK  18168.71385712  .00000091  00000-0  20979-4 0  9991
2 40043  97.8087  46.0143 0059558 195.8922 164.0420 14.74144805214684
Epoch (UTC): 17 June 2018 17:07:57
Eccentricity: 0.0059558
inclination: 97.8087°
perigee height: 606 km
apogee height: 690 km
right ascension of ascending node: 46.0143°
argument of perigee: 195.8922°
revolutions per day: 14.74144805
mean anomaly at epoch: 164.0420°
orbit number at epoch: 21468

The dashed part of the orbit path shows where the satellite is in the earth's shadow,  

DLR